| time (UTC) | temp F | wind direction | speed MPH | gust MPH | rain 1hr in | rain 24hr in | rain mn in | humidity % | barometer mb |
| 20260508094531 | 44 | 334 | 1.0 | 3.0 | 0.00 | 0.02 | 0.02 | 88 | 1011.9 |
| 20260508094015 | 44 | 313 | 1.0 | 3.0 | 0.00 | 0.02 | 0.02 | 88 | 1011.9 |
| 20260508093515 | 44 | 314 | 2.0 | 3.0 | 0.00 | 0.02 | 0.02 | 88 | 1011.9 |
| 20260508093048 | 44 | 314 | 1.0 | 3.0 | 0.00 | 0.02 | 0.02 | 88 | 1011.8 |
| 20260508092516 | 44 | 304 | 1.0 | 3.0 | 0.00 | 0.02 | 0.02 | 88 | 1011.7 |
| 20260508092017 | 44 | 286 | 1.0 | 2.0 | 0.00 | 0.02 | 0.02 | 88 | 1011.7 |
| 20260508091533 | 44 | 309 | 0.0 | 2.0 | 0.00 | 0.02 | 0.02 | 88 | 1011.7 |
| 20260508091015 | 44 | 0 | 0.0 | 2.0 | 0.00 | 0.02 | 0.02 | 88 | 1011.6 |
| 20260508090515 | 44 | 103 | 0.0 | 3.0 | 0.00 | 0.02 | 0.02 | 88 | 1011.6 |
| 20260508090053 | 44 | 0 | 0.0 | 3.0 | 0.00 | 0.02 | 0.02 | 88 | 1011.6 |
| 20260508085516 | 44 | 273 | 1.0 | 3.0 | 0.00 | 0.08 | 0.02 | 88 | 1011.5 |
| 20260508085014 | 44 | 165 | 0.0 | 4.0 | 0.00 | 0.08 | 0.02 | 88 | 1011.5 |
| 20260508084535 | 44 | 0 | 1.0 | 4.0 | 0.00 | 0.08 | 0.02 | 88 | 1011.5 |
| 20260508084018 | 44 | 265 | 1.0 | 4.0 | 0.00 | 0.08 | 0.02 | 88 | 1011.5 |
| 20260508083516 | 44 | 309 | 1.0 | 3.0 | 0.00 | 0.08 | 0.02 | 88 | 1011.6 |
| 20260508083033 | 44 | 313 | 1.0 | 3.0 | 0.00 | 0.08 | 0.02 | 89 | 1011.6 |
| 20260508082514 | 44 | 9 | 1.0 | 3.0 | 0.00 | 0.08 | 0.02 | 89 | 1011.4 |
| 20260508082015 | 43 | 291 | 0.0 | 3.0 | 0.00 | 0.08 | 0.02 | 89 | 1011.5 |
| 20260508081535 | 43 | 265 | 1.0 | 3.0 | 0.00 | 0.08 | 0.02 | 89 | 1011.5 |
| 20260508081018 | 43 | 319 | 0.0 | 3.0 | 0.00 | 0.08 | 0.02 | 89 | 1011.5 |
| 20260508080516 | 43 | 0 | 0.0 | 3.0 | 0.00 | 0.08 | 0.02 | 88 | 1011.6 |
| 20260508080038 | 43 | 0 | 0.0 | 3.0 | 0.00 | 0.08 | 0.02 | 88 | 1011.6 |
| 20260508075515 | 43 | 0 | 0.0 | 2.0 | 0.00 | 0.11 | 0.02 | 88 | 1011.5 |
| 20260508075018 | 43 | 0 | 0.0 | 2.0 | 0.00 | 0.11 | 0.02 | 88 | 1011.5 |
| 20260508074536 | 43 | 304 | 0.0 | 4.0 | 0.00 | 0.11 | 0.02 | 88 | 1011.5 |
| 20260508074016 | 43 | 0 | 1.0 | 5.0 | 0.01 | 0.11 | 0.02 | 88 | 1011.6 |
| 20260508073518 | 44 | 321 | 1.0 | 5.0 | 0.01 | 0.11 | 0.02 | 88 | 1011.8 |
| 20260508073032 | 44 | 305 | 1.0 | 4.0 | 0.01 | 0.11 | 0.02 | 88 | 1011.8 |
| 20260508072517 | 44 | 296 | 1.0 | 5.0 | 0.02 | 0.11 | 0.02 | 87 | 1011.8 |
| 20260508072015 | 44 | 330 | 1.0 | 5.0 | 0.02 | 0.11 | 0.02 | 87 | 1011.8 |
| 20260508071530 | 44 | 309 | 1.0 | 6.0 | 0.02 | 0.11 | 0.02 | 87 | 1011.8 |
| 20260508071015 | 44 | 31 | 1.0 | 6.0 | 0.02 | 0.11 | 0.02 | 86 | 1011.8 |
| 20260508070518 | 44 | 0 | 0.0 | 3.0 | 0.02 | 0.11 | 0.02 | 86 | 1011.9 |
| 20260508070036 | 44 | 325 | 1.0 | 4.0 | 0.02 | 0.11 | 0.02 | 85 | 1012.1 |
| 20260508065515 | 44 | 309 | 1.0 | 4.0 | 0.02 | 0.15 | 0.02 | 84 | 1012.2 |
| 20260508065017 | 44 | 17 | 1.0 | 4.0 | 0.02 | 0.15 | 0.02 | 83 | 1012.2 |
| 20260508064535 | 44 | 325 | 1.0 | 5.0 | 0.02 | 0.15 | 0.02 | 82 | 1012.2 |
| 20260508064016 | 45 | 309 | 2.0 | 5.0 | 0.01 | 0.14 | 0.01 | 80 | 1012.3 |
| 20260508063519 | 45 | 328 | 2.0 | 11.0 | 0.01 | 0.14 | 0.01 | 78 | 1012.2 |
| 20260508063033 | 46 | 286 | 3.0 | 15.0 | 0.01 | 0.14 | 0.01 | 74 | 1012.3 |
| 20260508062516 | 47 | 325 | 6.0 | 15.0 | 0.00 | 0.13 | 0.00 | 67 | 1012.3 |
| 20260508062016 | 48 | 277 | 4.0 | 11.0 | 0.00 | 0.13 | 0.00 | 61 | 1012.1 |
| 20260508061530 | 48 | 305 | 4.0 | 11.0 | 0.00 | 0.13 | 0.00 | 57 | 1011.8 |
| 20260508061017 | 48 | 292 | 3.0 | 8.0 | 0.00 | 0.13 | 0.00 | 56 | 1011.5 |
| 20260508060522 | 47 | 325 | 2.0 | 8.0 | 0.00 | 0.13 | 0.00 | 60 | 1011.5 |
| 20260508060030 | 47 | 291 | 2.0 | 7.0 | 0.00 | 0.13 | 0.00 | 63 | 1011.3 |
| 20260508055516 | 46 | 298 | 2.0 | 4.0 | 0.00 | 0.14 | 0.00 | 64 | 1010.3 |
| 20260508055019 | 46 | 0 | 1.0 | 4.0 | 0.00 | 0.14 | 0.00 | 68 | 1009.9 |
| 20260508054538 | 45 | 59 | 1.0 | 4.0 | 0.00 | 0.14 | 0.00 | 70 | 1009.8 |
| 20260508054017 | 45 | 9 | 1.0 | 3.0 | 0.00 | 0.14 | 0.00 | 72 | 1009.8 |
| 20260508053516 | 45 | 9 | 0.0 | 3.0 | 0.00 | 0.14 | 0.00 | 78 | 1009.8 |
| 20260508053031 | 45 | 26 | 0.0 | 2.0 | 0.00 | 0.14 | 0.00 | 77 | 1009.8 |
| 20260508052517 | 45 | 334 | 0.0 | 3.0 | 0.00 | 0.14 | 0.00 | 80 | 1009.8 |
| 20260508052017 | 45 | 0 | 1.0 | 3.0 | 0.00 | 0.14 | 0.00 | 80 | 1009.7 |
| 20260508051534 | 44 | 26 | 1.0 | 2.0 | 0.00 | 0.14 | 0.00 | 82 | 1009.8 |
| 20260508051016 | 44 | 30 | 0.0 | 2.0 | 0.00 | 0.14 | 0.00 | 83 | 1009.9 |
| 20260508050516 | 44 | 34 | 0.0 | 2.0 | 0.00 | 0.14 | 0.00 | 83 | 1010.0 |
| 20260508050030 | 44 | 0 | 0.0 | 2.0 | 0.00 | 0.14 | 0.00 | 83 | 1010.0 |
| 20260508045515 | 43 | 9 | 0.0 | 2.0 | 0.00 | 0.14 | 0.00 | 82 | 1010.0 |
| 20260508045016 | 43 | 80 | 0.0 | 2.0 | 0.00 | 0.14 | 0.00 | 82 | 1009.8 |
| 20260508044532 | 43 | 309 | 0.0 | 2.0 | 0.00 | 0.14 | 0.00 | 82 | 1009.7 |
| 20260508044021 | 43 | 334 | 1.0 | 2.0 | 0.00 | 0.14 | 0.00 | 80 | 1009.6 |
| 20260508043520 | 43 | 0 | 0.0 | 2.0 | 0.00 | 0.14 | 0.00 | 81 | 1009.5 |
| 20260508043031 | 43 | 0 | 1.0 | 2.0 | 0.00 | 0.14 | 0.00 | 80 | 1009.6 |
| 20260508042516 | 44 | 59 | 0.0 | 2.0 | 0.00 | 0.14 | 0.00 | 80 | 1009.8 |
| 20260508042016 | 44 | 44 | 1.0 | 4.0 | 0.00 | 0.14 | 0.00 | 80 | 1009.7 |
| 20260508041542 | 44 | 64 | 1.0 | 4.0 | 0.00 | 0.14 | 0.00 | 81 | 1009.7 |
| 20260508041014 | 43 | 0 | 1.0 | 3.0 | 0.00 | 0.14 | 0.00 | 82 | 1009.7 |
| 20260508040517 | 43 | 93 | 1.0 | 3.0 | 0.00 | 0.14 | 0.00 | 83 | 1009.7 |
| 20260508040035 | 43 | 72 | 1.0 | 3.0 | 0.00 | 0.14 | 0.00 | 81 | 1009.7 |
| 20260508035516 | 44 | 68 | 1.0 | 3.0 | 0.00 | 0.14 | 0.14 | 82 | 1009.8 |
| 20260508035017 | 44 | 93 | 1.0 | 3.0 | 0.00 | 0.14 | 0.14 | 82 | 1009.9 |
| 20260508034532 | 44 | 55 | 1.0 | 3.0 | 0.00 | 0.14 | 0.14 | 82 | 1009.9 |
| 20260508034015 | 44 | 67 | 1.0 | 3.0 | 0.00 | 0.14 | 0.14 | 81 | 1009.9 |
| 20260508033515 | 44 | 51 | 1.0 | 3.0 | 0.00 | 0.14 | 0.14 | 81 | 1010.0 |
| 20260508033038 | 44 | 44 | 1.0 | 2.0 | 0.00 | 0.14 | 0.14 | 81 | 1009.9 |
| 20260508032518 | 44 | 338 | 0.0 | 2.0 | 0.00 | 0.14 | 0.14 | 81 | 1009.9 |
| 20260508032015 | 45 | 0 | 0.0 | 3.0 | 0.00 | 0.14 | 0.14 | 80 | 1009.8 |
| 20260508031533 | 45 | 9 | 1.0 | 3.0 | 0.00 | 0.14 | 0.14 | 78 | 1009.6 |
| 20260508031015 | 45 | 64 | 1.0 | 2.0 | 0.00 | 0.14 | 0.14 | 79 | 1009.6 |
| 20260508030518 | 45 | 59 | 1.0 | 2.0 | 0.00 | 0.14 | 0.14 | 79 | 1009.6 |
| 20260508030039 | 45 | 51 | 1.0 | 2.0 | 0.00 | 0.14 | 0.14 | 78 | 1009.6 |
| 20260508025518 | 45 | 38 | 0.0 | 2.0 | 0.00 | 0.14 | 0.14 | 78 | 1009.7 |
| 20260508025016 | 45 | 41 | 1.0 | 2.0 | 0.00 | 0.14 | 0.14 | 77 | 1009.7 |
| 20260508024530 | 45 | 9 | 0.0 | 2.0 | 0.00 | 0.14 | 0.14 | 78 | 1009.7 |
| 20260508024016 | 45 | 26 | 1.0 | 2.0 | 0.00 | 0.14 | 0.14 | 76 | 1009.6 |
| 20260508023516 | 45 | 26 | 1.0 | 2.0 | 0.00 | 0.14 | 0.14 | 75 | 1009.6 |
| 20260508023040 | 46 | 338 | 0.0 | 2.0 | 0.00 | 0.14 | 0.14 | 75 | 1009.6 |
| 20260508022514 | 46 | 9 | 0.0 | 2.0 | 0.00 | 0.14 | 0.14 | 74 | 1009.6 |
| 20260508022016 | 46 | 0 | 0.0 | 2.0 | 0.00 | 0.14 | 0.14 | 72 | 1009.6 |
| 20260508021537 | 46 | 51 | 1.0 | 2.0 | 0.00 | 0.14 | 0.14 | 71 | 1009.7 |
| 20260508021017 | 46 | 0 | 0.0 | 2.0 | 0.00 | 0.14 | 0.14 | 71 | 1009.7 |
| 20260508020520 | 47 | 9 | 0.0 | 2.0 | 0.00 | 0.14 | 0.14 | 70 | 1009.7 |
| 20260508020029 | 47 | 51 | 0.0 | 2.0 | 0.00 | 0.14 | 0.14 | 69 | 1009.6 |
| 20260508015516 | 47 | 26 | 0.0 | 3.0 | 0.00 | 0.16 | 0.14 | 68 | 1009.6 |
| 20260508015015 | 48 | 334 | 0.0 | 3.0 | 0.00 | 0.16 | 0.14 | 67 | 1009.6 |
| 20260508014534 | 48 | 30 | 1.0 | 3.0 | 0.00 | 0.16 | 0.14 | 66 | 1009.6 |
| 20260508014013 | 48 | 51 | 1.0 | 3.0 | 0.00 | 0.16 | 0.14 | 65 | 1009.6 |
| 20260508013513 | 49 | 56 | 1.0 | 2.0 | 0.00 | 0.16 | 0.14 | 64 | 1009.6 |
| 20260508013033 | 49 | 59 | 1.0 | 2.0 | 0.00 | 0.16 | 0.14 | 64 | 1009.6 |
| 20260508012518 | 49 | 51 | 0.0 | 2.0 | 0.00 | 0.16 | 0.14 | 65 | 1009.5 |
| 20260508012015 | 49 | 51 | 0.0 | 2.0 | 0.00 | 0.16 | 0.14 | 63 | 1009.5 |
| 20260508011533 | 50 | 61 | 0.0 | 2.0 | 0.00 | 0.16 | 0.14 | 64 | 1009.5 |
| 20260508011016 | 50 | 9 | 0.0 | 2.0 | 0.00 | 0.16 | 0.14 | 66 | 1009.4 |
| 20260508010517 | 51 | 9 | 0.0 | 2.0 | 0.00 | 0.16 | 0.14 | 66 | 1009.4 |
| 20260508010041 | 51 | 34 | 0.0 | 2.0 | 0.00 | 0.16 | 0.14 | 65 | 1009.4 |
| 20260508005516 | 51 | 30 | 0.0 | 2.0 | 0.00 | 0.16 | 0.14 | 62 | 1009.4 |
| 20260508005016 | 51 | 0 | 0.0 | 2.0 | 0.00 | 0.16 | 0.14 | 58 | 1009.6 |
| 20260508004533 | 52 | 9 | 0.0 | 2.0 | 0.00 | 0.16 | 0.14 | 58 | 1009.4 |
| 20260508004014 | 52 | 0 | 0.0 | 2.0 | 0.00 | 0.16 | 0.14 | 61 | 1009.2 |
| 20260508003519 | 53 | 51 | 0.0 | 2.0 | 0.00 | 0.16 | 0.14 | 62 | 1009.1 |
| 20260508003033 | 53 | 34 | 0.0 | 2.0 | 0.00 | 0.16 | 0.14 | 53 | 1009.0 |
| 20260508002516 | 54 | 51 | 0.0 | 2.0 | 0.00 | 0.16 | 0.14 | 55 | 1009.0 |
| 20260508002017 | 54 | 0 | 0.0 | 2.0 | 0.00 | 0.16 | 0.14 | 54 | 1008.9 |
| 20260508001535 | 55 | 0 | 0.0 | 2.0 | 0.00 | 0.16 | 0.14 | 51 | 1008.9 |
| 20260508001015 | 55 | 0 | 0.0 | 3.0 | 0.00 | 0.16 | 0.14 | 47 | 1008.7 |
| 20260508000516 | 55 | 34 | 0.0 | 3.0 | 0.00 | 0.16 | 0.14 | 43 | 1008.7 |
| 20260508000034 | 56 | 9 | 1.0 | 3.0 | 0.00 | 0.16 | 0.14 | 45 | 1008.8 |
| 20260507235516 | 56 | 0 | 0.0 | 4.0 | 0.00 | 0.16 | 0.14 | 43 | 1008.8 |
| 20260507235016 | 57 | 0 | 1.0 | 4.0 | 0.00 | 0.16 | 0.14 | 46 | 1008.8 |
| 20260507234538 | 57 | 137 | 0.0 | 4.0 | 0.00 | 0.16 | 0.14 | 44 | 1008.8 |
| 20260507234016 | 57 | 340 | 1.0 | 6.0 | 0.00 | 0.16 | 0.14 | 41 | 1008.7 |
| 20260507233517 | 58 | 342 | 1.0 | 6.0 | 0.00 | 0.16 | 0.14 | 40 | 1008.7 |
| 20260507233032 | 58 | 26 | 0.0 | 6.0 | 0.00 | 0.16 | 0.14 | 40 | 1008.7 |
| 20260507232513 | 58 | 286 | 2.0 | 6.0 | 0.00 | 0.16 | 0.14 | 40 | 1008.6 |
| 20260507232019 | 58 | 0 | 2.0 | 7.0 | 0.00 | 0.16 | 0.14 | 38 | 1008.6 |
| 20260507231531 | 58 | 279 | 3.0 | 7.0 | 0.00 | 0.16 | 0.14 | 36 | 1008.6 |
| 20260507231016 | 58 | 119 | 2.0 | 7.0 | 0.00 | 0.16 | 0.14 | 38 | 1008.5 |
| 20260507230517 | 58 | 9 | 3.0 | 7.0 | 0.00 | 0.16 | 0.14 | 37 | 1008.6 |
| 20260507230035 | 59 | 273 | 3.0 | 10.0 | 0.00 | 0.16 | 0.14 | 38 | 1008.5 |
| 20260507225516 | 59 | 341 | 3.0 | 10.0 | 0.00 | 0.16 | 0.14 | 38 | 1008.4 |
| 20260507225018 | 59 | 11 | 2.0 | 8.0 | 0.00 | 0.16 | 0.14 | 38 | 1008.3 |
| 20260507224550 | 59 | 280 | 2.0 | 8.0 | 0.00 | 0.16 | 0.14 | 36 | 1008.4 |
| 20260507224016 | 60 | 277 | 2.0 | 8.0 | 0.00 | 0.16 | 0.14 | 38 | 1008.3 |
| 20260507223516 | 60 | 337 | 1.0 | 10.0 | 0.00 | 0.16 | 0.14 | 39 | 1008.1 |
| 20260507223043 | 60 | 19 | 1.0 | 10.0 | 0.00 | 0.16 | 0.14 | 37 | 1008.2 |
| 20260507222514 | 60 | 303 | 3.0 | 10.0 | 0.00 | 0.16 | 0.14 | 36 | 1008.2 |
| 20260507222014 | 61 | 303 | 2.0 | 9.0 | 0.00 | 0.16 | 0.14 | 36 | 1008.2 |
| 20260507221537 | 61 | 280 | 1.0 | 12.0 | 0.00 | 0.16 | 0.14 | 35 | 1008.4 |
| 20260507221017 | 61 | 110 | 2.0 | 12.0 | 0.00 | 0.16 | 0.14 | 37 | 1008.3 |
| 20260507220517 | 62 | 309 | 3.0 | 9.0 | 0.00 | 0.16 | 0.14 | 36 | 1008.4 |
| 20260507220036 | 62 | 247 | 2.0 | 9.0 | 0.00 | 0.16 | 0.14 | 35 | 1008.6 |
| 20260507215516 | 62 | 291 | 2.0 | 8.0 | 0.00 | 0.16 | 0.14 | 36 | 1008.5 |
| 20260507215015 | 62 | 282 | 2.0 | 8.0 | 0.00 | 0.16 | 0.14 | 37 | 1008.3 |
| 20260507214537 | 61 | 185 | 2.0 | 10.0 | 0.00 | 0.16 | 0.14 | 37 | 1008.4 |
| 20260507214016 | 61 | 309 | 2.0 | 10.0 | 0.00 | 0.16 | 0.14 | 37 | 1008.3 |
| 20260507213517 | 61 | 310 | 3.0 | 12.0 | 0.00 | 0.16 | 0.14 | 36 | 1008.3 |
| 20260507213035 | 61 | 306 | 3.0 | 13.0 | 0.00 | 0.16 | 0.14 | 36 | 1008.3 |
| 20260507212516 | 61 | 50 | 4.0 | 13.0 | 0.00 | 0.16 | 0.14 | 38 | 1008.1 |
| 20260507212016 | 61 | 247 | 4.0 | 13.0 | 0.00 | 0.16 | 0.14 | 35 | 1008.2 |
| 20260507211532 | 61 | 75 | 5.0 | 13.0 | 0.00 | 0.16 | 0.14 | 35 | 1008.2 |
| 20260507211016 | 61 | 324 | 3.0 | 18.0 | 0.00 | 0.16 | 0.14 | 37 | 1008.2 |
| 20260507210518 | 61 | 28 | 5.0 | 18.0 | 0.00 | 0.16 | 0.14 | 35 | 1008.3 |
| 20260507205516 | 62 | 282 | 2.0 | 10.0 | 0.00 | 0.18 | 0.14 | 37 | 1008.2 |
| 20260507205018 | 62 | 330 | 2.0 | 10.0 | 0.00 | 0.18 | 0.14 | 35 | 1008.3 |
| 20260507204533 | 62 | 312 | 2.0 | 8.0 | 0.00 | 0.18 | 0.14 | 37 | 1008.2 |
| 20260507204017 | 62 | 26 | 2.0 | 8.0 | 0.00 | 0.18 | 0.14 | 39 | 1008.2 |
| 20260507203516 | 62 | 305 | 1.0 | 12.0 | 0.00 | 0.18 | 0.14 | 40 | 1008.3 |
| 20260507203032 | 61 | 93 | 3.0 | 12.0 | 0.00 | 0.18 | 0.14 | 36 | 1008.1 |
| 20260507202516 | 62 | 61 | 5.0 | 12.0 | 0.00 | 0.18 | 0.14 | 38 | 1008.1 |
| 20260507202016 | 62 | 291 | 3.0 | 9.0 | 0.00 | 0.18 | 0.14 | 35 | 1007.9 |
| 20260507201536 | 62 | 314 | 3.0 | 8.0 | 0.00 | 0.18 | 0.14 | 38 | 1008.1 |
| 20260507201016 | 62 | 291 | 3.0 | 10.0 | 0.00 | 0.18 | 0.14 | 39 | 1008.1 |
| 20260507200516 | 61 | 344 | 2.0 | 13.0 | 0.00 | 0.18 | 0.14 | 40 | 1008.2 |
| 20260507200049 | 61 | 273 | 4.0 | 13.0 | 0.00 | 0.18 | 0.14 | 36 | 1008.2 |
| 20260507195513 | 61 | 232 | 5.0 | 13.0 | 0.00 | 0.21 | 0.14 | 36 | 1008.2 |
| 20260507195017 | 61 | 129 | 3.0 | 8.0 | 0.00 | 0.21 | 0.14 | 38 | 1008.2 |
| 20260507194534 | 61 | 288 | 3.0 | 15.0 | 0.00 | 0.21 | 0.14 | 38 | 1008.5 |
| 20260507194015 | 60 | 275 | 4.0 | 15.0 | 0.00 | 0.21 | 0.14 | 38 | 1008.4 |
| 20260507193518 | 60 | 265 | 4.0 | 14.0 | 0.00 | 0.21 | 0.14 | 40 | 1008.5 |
| 20260507193059 | 61 | 317 | 3.0 | 14.0 | 0.00 | 0.21 | 0.14 | 37 | 1008.5 |
| 20260507192515 | 61 | 93 | 2.0 | 11.0 | 0.00 | 0.21 | 0.14 | 40 | 1008.7 |
| 20260507192017 | 61 | 254 | 4.0 | 13.0 | 0.00 | 0.21 | 0.14 | 37 | 1008.7 |
| 20260507191530 | 62 | 338 | 3.0 | 13.0 | 0.00 | 0.21 | 0.14 | 36 | 1008.7 |
| 20260507191016 | 62 | 146 | 2.0 | 9.0 | 0.00 | 0.21 | 0.14 | 45 | 1008.8 |
| 20260507190518 | 61 | 196 | 2.0 | 10.0 | 0.00 | 0.21 | 0.14 | 44 | 1008.8 |
| 20260507190038 | 60 | 312 | 3.0 | 10.0 | 0.00 | 0.21 | 0.14 | 38 | 1008.9 |
| 20260507185514 | 61 | 178 | 1.0 | 8.0 | 0.00 | 0.21 | 0.14 | 39 | 1009.0 |
| 20260507185016 | 60 | 57 | 2.0 | 8.0 | 0.00 | 0.21 | 0.14 | 42 | 1009.0 |
| 20260507184532 | 60 | 219 | 2.0 | 8.0 | 0.00 | 0.21 | 0.14 | 41 | 1009.0 |
| 20260507184015 | 60 | 342 | 2.0 | 11.0 | 0.00 | 0.21 | 0.14 | 42 | 1009.2 |
| 20260507183514 | 60 | 291 | 4.0 | 11.0 | 0.00 | 0.21 | 0.14 | 40 | 1009.2 |
| 20260507183039 | 60 | 230 | 3.0 | 8.0 | 0.00 | 0.21 | 0.14 | 41 | 1009.0 |
| 20260507182515 | 59 | 187 | 2.0 | 9.0 | 0.00 | 0.21 | 0.14 | 40 | 1009.2 |
| 20260507182015 | 59 | 209 | 3.0 | 10.0 | 0.00 | 0.21 | 0.14 | 37 | 1009.4 |
| 20260507181532 | 59 | 309 | 2.0 | 10.0 | 0.00 | 0.21 | 0.14 | 40 | 1009.4 |
| 20260507181019 | 59 | 307 | 2.0 | 9.0 | 0.00 | 0.21 | 0.14 | 42 | 1009.4 |
| 20260507180515 | 59 | 221 | 3.0 | 10.0 | 0.00 | 0.21 | 0.14 | 41 | 1009.4 |
| 20260507180031 | 59 | 342 | 5.0 | 10.0 | 0.00 | 0.21 | 0.14 | 38 | 1009.5 |
| 20260507175515 | 59 | 324 | 5.0 | 10.0 | 0.00 | 0.24 | 0.14 | 40 | 1009.5 |
| 20260507175019 | 58 | 215 | 2.0 | 12.0 | 0.00 | 0.24 | 0.14 | 41 | 1009.5 |
| 20260507174534 | 58 | 9 | 2.0 | 12.0 | 0.00 | 0.24 | 0.14 | 43 | 1009.6 |
| 20260507174015 | 58 | 24 | 6.0 | 12.0 | 0.00 | 0.24 | 0.14 | 40 | 1009.7 |
| 20260507173520 | 58 | 249 | 4.0 | 13.0 | 0.00 | 0.24 | 0.14 | 39 | 1009.9 |
| 20260507173030 | 58 | 93 | 3.0 | 13.0 | 0.00 | 0.24 | 0.14 | 39 | 1009.9 |
| 20260507172518 | 58 | 327 | 4.0 | 13.0 | 0.00 | 0.24 | 0.14 | 42 | 1010.0 |
| 20260507172015 | 58 | 229 | 3.0 | 13.0 | 0.00 | 0.24 | 0.14 | 43 | 1010.0 |
| 20260507171534 | 58 | 247 | 4.0 | 13.0 | 0.00 | 0.24 | 0.14 | 40 | 1009.9 |
| 20260507171015 | 58 | 77 | 5.0 | 13.0 | 0.00 | 0.24 | 0.14 | 46 | 1010.2 |
| 20260507170516 | 58 | 158 | 5.0 | 12.0 | 0.00 | 0.24 | 0.14 | 40 | 1010.4 |
| 20260507170037 | 58 | 346 | 4.0 | 10.0 | 0.00 | 0.24 | 0.14 | 43 | 1010.4 |
| 20260507165515 | 58 | 317 | 4.0 | 9.0 | 0.00 | 0.25 | 0.14 | 43 | 1010.5 |
| 20260507165018 | 58 | 284 | 3.0 | 12.0 | 0.00 | 0.25 | 0.14 | 42 | 1010.4 |
| 20260507164534 | 58 | 338 | 3.0 | 12.0 | 0.00 | 0.25 | 0.14 | 45 | 1010.4 |
| 20260507164016 | 58 | 16 | 3.0 | 10.0 | 0.00 | 0.25 | 0.14 | 41 | 1010.5 |
| 20260507163516 | 58 | 332 | 4.0 | 10.0 | 0.00 | 0.25 | 0.14 | 45 | 1010.6 |
| 20260507163035 | 58 | 280 | 2.0 | 9.0 | 0.00 | 0.25 | 0.14 | 48 | 1010.7 |
| 20260507162515 | 58 | 254 | 4.0 | 9.0 | 0.00 | 0.25 | 0.14 | 45 | 1010.8 |
| 20260507162018 | 58 | 221 | 2.0 | 7.0 | 0.00 | 0.25 | 0.14 | 48 | 1010.8 |
| 20260507161530 | 57 | 0 | 2.0 | 11.0 | 0.00 | 0.25 | 0.14 | 45 | 1010.9 |
| 20260507161015 | 57 | 319 | 3.0 | 12.0 | 0.00 | 0.25 | 0.14 | 49 | 1010.9 |
| 20260507160517 | 56 | 268 | 4.0 | 12.0 | 0.00 | 0.25 | 0.14 | 51 | 1011.0 |
| 20260507160054 | 56 | 59 | 5.0 | 12.0 | 0.00 | 0.25 | 0.14 | 46 | 1011.1 |
| 20260507155519 | 56 | 55 | 5.0 | 12.0 | 0.00 | 0.25 | 0.14 | 46 | 1011.1 |
| 20260507155015 | 56 | 265 | 4.0 | 11.0 | 0.00 | 0.25 | 0.14 | 50 | 1011.2 |
| 20260507154529 | 55 | 26 | 3.0 | 13.0 | 0.00 | 0.25 | 0.14 | 49 | 1011.4 |
| 20260507154015 | 55 | 350 | 6.0 | 13.0 | 0.00 | 0.25 | 0.14 | 49 | 1011.4 |
| 20260507153516 | 55 | 88 | 6.0 | 12.0 | 0.00 | 0.25 | 0.14 | 51 | 1011.5 |
| 20260507153035 | 55 | 321 | 5.0 | 12.0 | 0.00 | 0.25 | 0.14 | 47 | 1011.5 |
| 20260507152515 | 56 | 9 | 6.0 | 14.0 | 0.00 | 0.25 | 0.14 | 46 | 1011.6 |
| 20260507152016 | 55 | 279 | 5.0 | 14.0 | 0.00 | 0.25 | 0.14 | 53 | 1011.7 |
| 20260507151530 | 55 | 34 | 3.0 | 12.0 | 0.00 | 0.25 | 0.14 | 53 | 1011.7 |
| 20260507151015 | 55 | 20 | 5.0 | 12.0 | 0.00 | 0.25 | 0.14 | 52 | 1011.7 |
| 20260507150516 | 55 | 296 | 4.0 | 10.0 | 0.00 | 0.25 | 0.14 | 53 | 1011.8 |
| 20260507150030 | 56 | 272 | 2.0 | 10.0 | 0.00 | 0.25 | 0.14 | 62 | 1011.8 |
| 20260507145516 | 55 | 33 | 3.0 | 10.0 | 0.00 | 0.25 | 0.14 | 63 | 1011.7 |
| 20260507145015 | 55 | 9 | 3.0 | 10.0 | 0.00 | 0.25 | 0.14 | 59 | 1011.6 |
| 20260507144542 | 54 | 348 | 3.0 | 11.0 | 0.00 | 0.25 | 0.14 | 63 | 1011.6 |
| 20260507144018 | 54 | 47 | 3.0 | 11.0 | 0.00 | 0.25 | 0.14 | 62 | 1011.4 |
| 20260507143516 | 54 | 279 | 5.0 | 11.0 | 0.00 | 0.25 | 0.14 | 65 | 1011.6 |
| 20260507143034 | 54 | 327 | 5.0 | 11.0 | 0.00 | 0.25 | 0.14 | 65 | 1011.4 |
| 20260507142516 | 54 | 61 | 4.0 | 10.0 | 0.00 | 0.25 | 0.14 | 66 | 1011.5 |
| 20260507142013 | 53 | 238 | 5.0 | 10.0 | 0.00 | 0.25 | 0.14 | 69 | 1011.3 |
| 20260507141534 | 53 | 232 | 2.0 | 10.0 | 0.00 | 0.25 | 0.14 | 74 | 1011.5 |
| 20260507141021 | 52 | 344 | 3.0 | 9.0 | 0.00 | 0.25 | 0.14 | 74 | 1011.5 |
| 20260507140516 | 51 | 335 | 3.0 | 9.0 | 0.00 | 0.25 | 0.14 | 74 | 1011.4 |
| 20260507140034 | 51 | 9 | 3.0 | 8.0 | 0.00 | 0.25 | 0.14 | 75 | 1011.4 |
| 20260507135515 | 51 | 71 | 3.0 | 7.0 | 0.00 | 0.25 | 0.14 | 75 | 1011.4 |
| 20260507135017 | 51 | 284 | 3.0 | 7.0 | 0.00 | 0.25 | 0.14 | 75 | 1011.5 |
| 20260507134530 | 51 | 344 | 2.0 | 6.0 | 0.00 | 0.25 | 0.14 | 76 | 1011.5 |
| 20260507134014 | 51 | 321 | 2.0 | 5.0 | 0.00 | 0.25 | 0.14 | 78 | 1011.6 |
| 20260507133517 | 51 | 247 | 2.0 | 5.0 | 0.00 | 0.25 | 0.14 | 77 | 1011.7 |
| 20260507133035 | 51 | 333 | 1.0 | 7.0 | 0.00 | 0.25 | 0.14 | 77 | 1011.5 |
| 20260507132516 | 51 | 19 | 3.0 | 8.0 | 0.00 | 0.25 | 0.14 | 78 | 1011.6 |
| 20260507132014 | 51 | 277 | 3.0 | 8.0 | 0.00 | 0.25 | 0.14 | 79 | 1011.6 |
| 20260507131532 | 51 | 164 | 2.0 | 7.0 | 0.00 | 0.25 | 0.14 | 83 | 1011.3 |
| 20260507131015 | 50 | 15 | 2.0 | 8.0 | 0.00 | 0.25 | 0.14 | 83 | 1011.2 |
| 20260507130516 | 50 | 15 | 3.0 | 8.0 | 0.00 | 0.25 | 0.14 | 82 | 1011.3 |
| 20260507130036 | 51 | 272 | 1.0 | 4.0 | 0.00 | 0.25 | 0.14 | 85 | 1011.3 |
| 20260507125517 | 50 | 338 | 2.0 | 7.0 | 0.00 | 0.25 | 0.14 | 86 | 1011.4 |
| 20260507125018 | 50 | 34 | 2.0 | 8.0 | 0.00 | 0.25 | 0.14 | 86 | 1011.2 |
| 20260507124531 | 50 | 312 | 3.0 | 8.0 | 0.00 | 0.25 | 0.14 | 87 | 1011.2 |
| 20260507124016 | 49 | 254 | 3.0 | 8.0 | 0.00 | 0.25 | 0.14 | 88 | 1011.3 |
| 20260507123515 | 49 | 28 | 3.0 | 8.0 | 0.00 | 0.25 | 0.14 | 88 | 1011.3 |
| 20260507123040 | 49 | 306 | 3.0 | 8.0 | 0.00 | 0.25 | 0.14 | 89 | 1011.1 |
| 20260507122514 | 49 | 292 | 2.0 | 4.0 | 0.00 | 0.25 | 0.14 | 90 | 1011.0 |
| 20260507122018 | 48 | 309 | 1.0 | 4.0 | 0.00 | 0.25 | 0.14 | 90 | 1010.9 |
| 20260507121534 | 48 | 72 | 1.0 | 9.0 | 0.00 | 0.25 | 0.14 | 90 | 1011.0 |
| 20260507121015 | 48 | 323 | 3.0 | 9.0 | 0.00 | 0.25 | 0.14 | 90 | 1010.9 |
| 20260507120515 | 48 | 338 | 2.0 | 7.0 | 0.00 | 0.25 | 0.14 | 90 | 1010.9 |
| 20260507120030 | 48 | 304 | 1.0 | 4.0 | 0.00 | 0.25 | 0.14 | 91 | 1010.9 |
| 20260507115516 | 48 | 22 | 1.0 | 4.0 | 0.00 | 0.25 | 0.14 | 91 | 1010.8 |
| 20260507115017 | 48 | 0 | 1.0 | 4.0 | 0.00 | 0.25 | 0.14 | 91 | 1010.8 |
| 20260507114531 | 48 | 328 | 1.0 | 4.0 | 0.00 | 0.25 | 0.14 | 91 | 1010.7 |
| 20260507114015 | 47 | 41 | 0.0 | 4.0 | 0.00 | 0.25 | 0.14 | 91 | 1010.7 |
| 20260507113518 | 47 | 309 | 1.0 | 4.0 | 0.00 | 0.25 | 0.14 | 91 | 1010.6 |
| 20260507113036 | 47 | 9 | 1.0 | 3.0 | 0.00 | 0.25 | 0.14 | 92 | 1010.4 |
| 20260507112516 | 47 | 309 | 1.0 | 4.0 | 0.00 | 0.25 | 0.14 | 92 | 1010.4 |
| 20260507112016 | 47 | 38 | 1.0 | 4.0 | 0.00 | 0.25 | 0.14 | 92 | 1010.4 |
| 20260507111537 | 47 | 9 | 1.0 | 3.0 | 0.00 | 0.25 | 0.14 | 92 | 1010.4 |
| 20260507111016 | 47 | 9 | 0.0 | 3.0 | 0.00 | 0.25 | 0.14 | 92 | 1010.5 |
| 20260507110515 | 47 | 190 | 0.0 | 4.0 | 0.00 | 0.25 | 0.14 | 92 | 1010.4 |
| 20260507110033 | 47 | 309 | 2.0 | 4.0 | 0.00 | 0.25 | 0.14 | 92 | 1010.1 |
| 20260507105516 | 47 | 0 | 0.0 | 4.0 | 0.00 | 0.25 | 0.14 | 92 | 1010.1 |
| 20260507105016 | 47 | 309 | 0.0 | 4.0 | 0.00 | 0.25 | 0.14 | 92 | 1010.1 |
| 20260507104532 | 47 | 309 | 2.0 | 4.0 | 0.00 | 0.25 | 0.14 | 92 | 1010.1 |
| 20260507104017 | 47 | 342 | 1.0 | 4.0 | 0.00 | 0.25 | 0.14 | 92 | 1010.0 |
| 20260507103516 | 47 | 294 | 1.0 | 5.0 | 0.00 | 0.25 | 0.14 | 92 | 1009.8 |
| 20260507103036 | 47 | 119 | 0.0 | 5.0 | 0.00 | 0.25 | 0.14 | 92 | 1009.8 |
| 20260507102516 | 47 | 338 | 1.0 | 4.0 | 0.00 | 0.25 | 0.14 | 92 | 1009.6 |
| 20260507102016 | 47 | 9 | 2.0 | 4.0 | 0.00 | 0.25 | 0.14 | 92 | 1009.7 |
| 20260507101530 | 47 | 0 | 1.0 | 4.0 | 0.00 | 0.25 | 0.14 | 92 | 1009.5 |
| 20260507101018 | 47 | 279 | 1.0 | 4.0 | 0.00 | 0.25 | 0.14 | 92 | 1009.5 |
| 20260507100518 | 47 | 309 | 0.0 | 5.0 | 0.00 | 0.25 | 0.14 | 92 | 1009.3 |
| 20260507100035 | 47 | 265 | 1.0 | 5.0 | 0.00 | 0.25 | 0.14 | 92 | 1009.4 |
| 20260507095516 | 47 | 284 | 1.0 | 4.0 | 0.00 | 0.25 | 0.14 | 92 | 1009.5 |
| 20260507095015 | 47 | 0 | 1.0 | 4.0 | 0.00 | 0.25 | 0.14 | 92 | 1009.5 |